Landsat 5

operational
NORAD ID: 14780 Int'l Des: 1984-021 Owner: NOAA Country: US
LEOCIRCULARRETROGRADE

About Landsat 5

Description loading...

Live Position

Loading 3D Globe...

Upcoming Passes

Altitude History

Altitude vs Time

uPlot chart will show altitude changes over time

Two-Line Element Set

1 14780U 84021A 26022.46817715 .00003906 00000-0 27630-3 0 9995
2 14780 98.0738 295.3410 0067985 244.7783 114.6383 15.03656115769484
Epoch: Jan 22, 2026 • Age: 17 hours

Current Status

Altitude 553.5 km
Velocity 7.60 km/s
Sub-Earth Point -58.03°S, 118.48°E
Launch Date Mar 1, 1984
Age 41.8 years
Type earth observation

Technical Details

Classification Payload
Mass 1938.00 kg
Dry Mass 1863.00 kg
Total Mass 1938.00 kg
Length 4.30 m
Diameter 2.10 m
Span 6.00 m
Shape Box + 2 Pan
Manufacturer GEVF/FAIR
Bus Type MMS
Phase Status Renamed
Owner/State NOAA/US

Large Constellations

Loading constellations...